EW7199 Weather Reports


Display with metric or nautical units.
time (UTC)temp
F
wind
direction
speed
MPH
gust
MPH
rain 1hr
in
rain 24hr
in
rain mn
in
humidity
%
barometer
mb
20260504190408 65 268 0.0 0.0 0.00 0.00 0.00 72 1017.8
20260504185908 65 268 0.0 0.0 0.00 0.00 0.00 74 1017.7
20260504185407 65 268 1.0 2.0 0.00 0.00 0.00 74 1017.8
20260504184907 65 270 1.0 3.0 0.00 0.00 0.00 75 1017.7
20260504184410 65 252 1.0 3.0 0.00 0.00 0.00 74 1017.8
20260504183907 65 253 0.0 1.0 0.00 0.00 0.00 75 1017.7
20260504182908 65 251 1.0 2.0 0.00 0.00 0.00 76 1017.6
20260504182409 65 243 2.0 3.0 0.00 0.00 0.00 75 1017.6
20260504181908 65 249 1.0 2.0 0.00 0.00 0.00 75 1017.6
20260504181408 65 251 2.0 3.0 0.00 0.00 0.00 74 1017.6
20260504175907 66 231 0.0 2.0 0.00 0.00 0.00 72 1017.4
20260504175408 66 231 0.0 1.0 0.00 0.00 0.00 72 1017.3
20260504174909 66 232 0.0 0.0 0.00 0.00 0.00 72 1017.2
20260504174409 66 232 0.0 0.0 0.00 0.00 0.00 72 1017.2
20260504173908 66 232 0.0 0.0 0.00 0.00 0.00 73 1017.3
20260504173408 66 232 0.0 0.0 0.00 0.00 0.00 73 1017.2
20260504172907 66 232 1.0 2.0 0.00 0.00 0.00 72 1017.2
20260504172408 66 256 1.0 2.0 0.00 0.00 0.00 71 1017.2
20260504171908 66 282 1.0 3.0 0.00 0.00 0.00 68 1017.1
20260504171409 66 251 1.0 2.0 0.00 0.00 0.00 68 1017.1
20260504170908 67 264 2.0 3.0 0.00 0.00 0.00 67 1017.0
20260504170409 67 243 0.0 2.0 0.00 0.00 0.00 61 1017.0
20260504160408 71 135 0.0 0.0 0.00 0.00 0.00 49 1016.8
20260504150907 72 232 2.0 3.0 0.00 0.00 0.00 45 1017.0
20260504150407 72 210 2.0 3.0 0.00 0.00 0.00 43 1017.0
20260504140907 74 157 1.0 3.0 0.00 0.00 0.00 42 1017.0
20260504140408 73 182 1.0 3.0 0.00 0.00 0.00 42 1017.1
20260504130407 75 249 1.0 3.0 0.00 0.00 0.00 40 1017.3
20260504100407 68 241 2.0 3.0 0.00 0.00 0.00 53 1018.7
20260504081907 64 225 2.0 3.0 0.00 0.00 0.00 58 1019.3
20260504081408 63 232 2.0 3.0 0.00 0.00 0.00 60 1019.3
20260504080406 63 230 2.0 3.0 0.00 0.00 0.00 65 1019.4
20260504070406 61 246 2.0 3.0 0.00 0.00 0.00 65 1019.0
20260504050407 58 88 0.0 0.0 0.00 0.00 0.00 75 1018.5
20260504045906 58 88 0.0 0.0 0.00 0.00 0.00 75 1018.5
20260504045407 58 88 0.0 0.0 0.00 0.00 0.00 75 1018.5
20260504044906 58 85 0.0 0.0 0.00 0.00 0.00 74 1018.5
20260504043907 57 85 0.0 0.0 0.00 0.00 0.00 73 1018.4
20260504043407 57 85 1.0 2.0 0.00 0.00 0.00 73 1018.4
20260504042910 58 84 1.0 2.0 0.00 0.00 0.00 73 1018.3
20260504042406 58 279 1.0 2.0 0.00 0.00 0.00 75 1018.2
20260504041919 58 279 0.0 0.0 0.00 0.00 0.00 76 1018.2
20260504041407 58 279 0.0 0.0 0.00 0.00 0.00 77 1018.2
20260504040910 58 279 0.0 0.0 0.00 0.00 0.00 77 1018.1
20260504040406 58 279 0.0 1.0 0.00 0.00 0.00 77 1018.1
20260504035407 58 279 1.0 2.0 0.00 0.00 0.00 75 1018.2
20260504034909 58 279 2.0 3.0 0.00 0.00 0.00 75 1018.1
20260504034408 58 300 2.0 2.0 0.00 0.00 0.00 75 1018.1
20260504033906 58 300 0.0 0.0 0.00 0.00 0.00 75 1018.0
20260504033406 58 300 0.0 0.0 0.00 0.00 0.00 75 1018.0
20260504032907 58 300 0.0 0.0 0.00 0.00 0.00 75 1018.1
20260504032407 58 300 0.0 0.0 0.00 0.00 0.00 75 1018.0
20260504031407 58 300 0.0 0.0 0.00 0.00 0.00 75 1018.0
20260504030906 58 300 0.0 0.0 0.00 0.00 0.00 75 1018.1
20260504025907 58 300 0.0 0.0 0.00 0.00 0.00 74 1018.0
20260504025414 58 300 0.0 0.0 0.00 0.00 0.00 74 1018.0
20260504024923 58 300 0.0 0.0 0.00 0.00 0.00 74 1018.0
20260504024409 58 300 0.0 0.0 0.00 0.00 0.00 74 1018.0
20260504023914 59 300 0.0 1.0 0.00 0.00 0.00 73 1018.0
20260504023409 58 299 1.0 3.0 0.00 0.00 0.00 73 1018.0
20260504023014 59 48 0.0 1.0 0.00 0.00 0.00 70 1018.0
20260504022417 59 48 0.0 0.0 0.00 0.00 0.00 70 1018.0
20260504021416 59 48 0.0 1.0 0.00 0.00 0.00 69 1018.1
20260504020917 59 48 0.0 1.0 0.00 0.00 0.00 69 1018.0
20260504020417 59 48 0.0 0.0 0.00 0.00 0.00 69 1018.0
20260504014917 59 48 0.0 0.0 0.00 0.00 0.00 69 1018.0
20260504014417 59 48 0.0 0.0 0.00 0.00 0.00 69 1018.0
20260504013918 59 48 0.0 1.0 0.00 0.00 0.00 69 1018.0
20260504013418 59 48 0.0 1.0 0.00 0.00 0.00 69 1018.0
20260504012917 59 48 1.0 2.0 0.00 0.00 0.00 70 1018.0
20260504012416 59 49 1.0 2.0 0.00 0.00 0.00 70 1018.0
20260504011918 59 51 0.0 2.0 0.00 0.00 0.00 70 1018.0
20260504011418 59 52 1.0 2.0 0.00 0.00 0.00 70 1018.0
20260504005918 59 42 1.0 2.0 0.00 0.00 0.00 70 1018.1
20260504004917 59 47 2.0 3.0 0.00 0.00 0.00 70 1018.1
20260504004418 59 43 1.0 3.0 0.00 0.00 0.00 70 1018.1
20260504003918 59 44 2.0 3.0 0.00 0.00 0.00 70 1018.1
20260504003418 59 39 2.0 3.0 0.00 0.00 0.00 70 1018.1
20260504002917 59 39 1.0 2.0 0.00 0.00 0.00 70 1018.2
20260504002417 59 53 0.0 2.0 0.00 0.00 0.00 70 1018.1
20260504001418 59 48 2.0 3.0 0.00 0.00 0.00 70 1018.1
20260504000918 59 43 2.0 5.0 0.00 0.00 0.00 71 1018.1
20260504000417 59 66 1.0 3.0 0.00 0.00 0.00 71 1018.1
20260503235917 59 37 1.0 3.0 0.00 0.00 0.00 71 1018.1
20260503235417 59 53 1.0 3.0 0.00 0.00 0.00 71 1018.2
20260503234916 59 44 1.0 3.0 0.00 0.00 0.00 70 1018.2
20260503234416 59 41 2.0 3.0 0.00 0.00 0.00 70 1018.3
20260503233916 59 61 2.0 5.0 0.00 0.00 0.00 71 1018.3
20260503233417 59 59 2.0 3.0 0.00 0.00 0.00 71 1018.3
20260503232917 59 56 2.0 3.0 0.00 0.00 0.00 72 1018.3
20260503232416 59 45 2.0 3.0 0.00 0.00 0.00 72 1018.3
20260503231916 59 62 1.0 3.0 0.00 0.00 0.00 72 1018.3
20260503231417 59 65 2.0 3.0 0.00 0.00 0.00 72 1018.3
20260503230917 59 76 2.0 3.0 0.00 0.00 0.00 72 1018.3
20260503230417 59 74 1.0 3.0 0.00 0.00 0.00 71 1018.4
20260503225917 59 75 2.0 3.0 0.00 0.00 0.00 71 1018.4
20260503225416 59 67 2.0 3.0 0.00 0.00 0.00 71 1018.4
20260503224917 59 81 1.0 3.0 0.00 0.00 0.00 71 1018.4
20260503224419 59 72 1.0 3.0 0.00 0.00 0.00 71 1018.4
20260503223917 59 72 2.0 3.0 0.00 0.00 0.00 71 1018.4
20260503223416 59 79 1.0 3.0 0.00 0.00 0.00 71 1018.4
20260503222918 59 84 1.0 3.0 0.00 0.00 0.00 71 1018.4
20260503222416 60 78 1.0 3.0 0.00 0.00 0.00 71 1018.5
20260503221920 60 75 0.0 0.0 0.00 0.00 0.00 71 1018.5
20260503220917 60 81 2.0 3.0 0.00 0.00 0.00 71 1018.4
20260503220417 60 80 3.0 6.0 0.00 0.00 0.00 71 1018.4
20260503215917 61 88 2.0 3.0 0.00 0.00 0.00 71 1018.4
20260503214917 62 113 1.0 3.0 0.00 0.00 0.00 70 1018.4
20260503214417 63 120 1.0 3.0 0.00 0.00 0.00 70 1018.4
20260503213917 64 189 0.0 2.0 0.00 0.00 0.00 70 1018.3
20260503213417 64 258 1.0 2.0 0.00 0.00 0.00 70 1018.3
20260503212918 64 275 0.0 1.0 0.00 0.00 0.00 71 1018.3
20260503212417 64 278 1.0 2.0 0.00 0.00 0.00 71 1018.3
20260503211917 64 278 0.0 2.0 0.00 0.00 0.00 72 1018.3
20260503211417 64 278 1.0 2.0 0.00 0.00 0.00 73 1018.3
20260503210917 64 279 1.0 2.0 0.00 0.00 0.00 73 1018.3
20260503210417 64 260 1.0 3.0 0.00 0.00 0.00 73 1018.2
20260503205917 64 256 2.0 3.0 0.00 0.00 0.00 72 1018.3
20260503204418 64 278 1.0 2.0 0.00 0.00 0.00 73 1018.3
20260503203916 64 252 2.0 3.0 0.00 0.00 0.00 72 1018.2
20260503203417 64 299 2.0 3.0 0.00 0.00 0.00 70 1018.2
20260503202917 64 282 1.0 2.0 0.00 0.00 0.00 68 1018.2
20260503202418 64 212 1.0 3.0 0.00 0.00 0.00 68 1018.1
20260503201921 64 208 1.0 3.0 0.00 0.00 0.00 68 1018.1
20260503201417 64 215 2.0 3.0 0.00 0.00 0.00 68 1018.0
20260503200916 64 229 2.0 2.0 0.00 0.00 0.00 68 1018.1
20260503200417 64 228 2.0 3.0 0.00 0.00 0.00 67 1018.1
20260503195917 64 230 2.0 3.0 0.00 0.00 0.00 67 1018.0
20260503195417 64 225 2.0 3.0 0.00 0.00 0.00 68 1018.0
20260503194916 64 205 2.0 3.0 0.00 0.00 0.00 68 1018.0
20260503194418 64 227 2.0 3.0 0.00 0.00 0.00 68 1017.9
20260503193916 64 213 2.0 3.0 0.00 0.00 0.00 69 1018.0
20260503193417 64 213 2.0 3.0 0.00 0.00 0.00 69 1017.9
20260503192917 64 219 2.0 3.0 0.00 0.00 0.00 69 1017.9
20260503192417 64 232 2.0 3.0 0.00 0.00 0.00 69 1017.8
20260503191916 64 230 2.0 3.0 0.00 0.00 0.00 68 1017.9
20260503191417 64 221 2.0 3.0 0.00 0.00 0.00 67 1017.7